Starlink 30245

operational
NORAD ID: 57612 Int'l Des: 2023-119 Owner: SPXS Country: US Constellation: starlink
LEOCIRCULAR

关于 Starlink 30245

正在加载描述...

实时位置

正在加载3D地球...

即将过境

高度历史

Altitude vs Time

uPlot chart will show altitude changes over time

两行轨道根数

1 57612U 23119L 26035.09164315 -.00003368 00000-0 -23426-3 0 9994
2 57612 43.0032 264.0212 0001224 261.0419 99.0285 15.02551415138031
Epoch: Feb 4, 2026 • Age: 12 hours

当前状态

高度 565.9 km
速度 7.58 km/s
星下点 -28.70°S, 126.79°E
发射日期 Aug 11, 2023
运行时间 2.4 years
类型 internet

技术详情

分类 Payload
质量 730.00 kg
干质量 700.00 kg
总质量 730.00 kg
长度 0.30 m
直径 4.10 m
跨度 29.00 m
形状 Box + pan
制造商 SPXS
平台类型 Starlink V2M
阶段状态 In Orbit
所有者/国家 SPXS/US

大型星座

Loading constellations...